EUTELSAT 117 WEST A

Last updated on Thu Jul 03 2025 00:02:46 GMT+0000 (Coordinated Universal Time)

1 39122U 13012A 25183.54342446 -.00000005 00000+0 00000+0 0 9999 2 39122 0.0157 41.3301 0002949 63.9253 254.3933 1.00271061 44922
UTC large
Height (km)
Speed (km/s)
/
Latitude / Longitude
Inclination (degrees)
Orbital Period (minutes)
Azimuth
Elevation
Range (km)
Doppler Factor

Next 0 passes for location: London (51.5072 / 0.1276)

Sorry there are no passes over London.